JILIN-01 GAOFEN 3D 5 (52390 NORAD) Tracking and Keplerian Element Data

This shows tracking and keplerian element data for the satellite.

Feedback or suggestion? Click here.




ElementValue
Catalog52390
NameJILIN-01 GAOFEN 3D 5
Epoch Orbit706
Epoch Day166.99272287
Epoch Year2022
RAAN254.3411
Inclination97.5359
Eccentricity0.0014555
Argument of Perigee134.5409
Mean Anonmoly338.8055
Mean Motion15.10484247
Decay Rate4.1E-05
L11 52390U 22046C 22166.99272287 .00004100 00000+0 25231-3 0 9996
L22 52390 97.5359 254.3411 0014555 134.5409 338.8055 15.10484247 7066

Live tracking and technical data element details for JILIN-01 GAOFEN 3D 5 (NORAD 52390). JILIN-01 GAOFEN 3D 5 can be tracked NOW for your location showing map with azimuth and elevation plus other details from your city location.

Track the satellite on the map from your city or location and see movement details for azimuth, elevation, latitude, longitude, range, height, and movement on the map or in text.







IsCatalogInMostPopularTable: catalog: 52390, numindb: 3
Update: records affected: 1



GetName: 52390 JILIN-01 GAOFEN 3D 5

Hit Count: updated at: Sat, 25 Jun 2022 04:17:40 GMT